Вернуться в каталог

DMSP 5D-2 F13 DEB

АктивенSSO
NORAD 40582·DEBRIS·🇺🇸 United States

Запущен Mar 24, 1995 с Vandenberg Space Force Base

Loading…

Ближайшие Пролёты (ближайшие 24 часа)

TLE

СвежийSource: Space-Track

Эпоха: Sep 12, 2026, 12:36 UTC

1 40582U 95015ER  26255.52539337  .00003754  00000-0  14372-2 0  9994
2 40582  98.7110 162.7543 0067833 227.8131 131.7279 14.29944464586945

Отслеживайте DMSP 5D-2 F13 DEB в реальном времени с AllMySat

Download on the App Store